�N����,����,�~����,�C��,���x,�C��,����,���ϕ���,�ő�u�ԕ���,�ő厞����,���˗�,�I�_���x,�n�����x,�ő啗���N��,DTYPE
"23/06/16","00:10",0.0,20.1,88.7,1002.6,348.2,1.5,2.7,346.3,0.00,18.2,21.5,"00:09:28",1
"23/06/16","00:20",0.0,20.1,89.0,1002.9,346.1,1.0,2.2,353.7,0.00,18.3,21.3,"00:12:32",1
"23/06/16","00:30",0.0,19.9,89.3,1002.9,327.5,1.0,1.4,342.4,0.00,18.1,21.4,"00:20:40",1
"23/06/16","00:40",0.0,19.8,89.8,1002.9,347.1,1.1,1.6,348.0,0.00,18.1,21.4,"00:32:08",1
"23/06/16","00:50",0.0,19.7,90.4,1002.9,338.4,1.1,1.9,332.0,0.00,18.1,21.4,"00:44:32",1
"23/06/16","01:00",0.0,19.6,90.8,1002.9,332.4,0.8,1.7,340.8,0.00,18.1,21.2,"00:50:40",1
"23/06/16","01:10",0.0,19.8,90.9,1002.9,298.7,1.8,4.3,308.6,0.00,18.3,21.2,"01:07:52",1
"23/06/16","01:20",0.0,20.0,90.5,1002.6,325.3,2.5,4.5,334.1,0.00,18.4,21.4,"01:15:20",1
"23/06/16","01:30",0.0,20.0,90.1,1002.9,326.5,3.0,4.8,350.6,0.00,18.4,21.2,"01:21:52",1
"23/06/16","01:40",0.0,19.9,89.6,1003.1,325.6,2.2,4.3,341.3,0.00,18.2,21.2,"01:30:16",1
"23/06/16","01:50",0.0,19.9,89.1,1003.1,333.1,2.0,3.7,351.8,0.00,18.1,21.3,"01:49:36",1
"23/06/16","02:00",0.0,19.9,88.7,1003.1,325.2,2.2,5.0,343.3,0.00,18.0,21.1,"01:54:56",1
"23/06/16","02:10",0.0,19.7,88.4,1003.1,339.5,2.0,3.7,334.5,0.00,17.8,21.2,"02:09:52",1
"23/06/16","02:20",0.0,19.6,88.5,1003.1,331.1,2.8,5.1,332.8,0.00,17.7,21.1,"02:19:44",1
"23/06/16","02:30",0.0,19.7,88.3,1003.6,334.8,3.0,5.1,345.7,0.00,17.8,21.0,"02:26:08",1
"23/06/16","02:40",0.0,19.6,88.1,1003.4,326.0,2.3,4.8,337.6,0.00,17.6,21.1,"02:33:12",1
"23/06/16","02:50",0.0,19.5,88.1,1003.4,328.4,1.6,2.9,344.6,0.00,17.5,21.1,"02:44:32",1
"23/06/16","03:00",0.0,19.4,88.3,1003.1,357.8,1.1,2.1,14.3,0.00,17.5,21.1,"02:51:04",1
"23/06/16","03:10",0.0,19.2,88.6,1003.8,332.6,1.3,3.1,345.7,0.00,17.3,21.1,"03:09:12",1
"23/06/16","03:20",0.0,19.0,88.9,1003.4,339.4,1.5,2.9,340.2,0.00,17.2,21.0,"03:12:24",1
"23/06/16","03:30",0.0,18.8,89.3,1003.6,321.7,1.3,2.1,326.4,0.00,17.0,21.2,"03:29:36",1
"23/06/16","03:40",0.0,18.6,89.8,1003.8,319.9,1.3,2.0,321.6,0.00,16.9,20.9,"03:31:20",1
"23/06/16","03:50",0.0,18.5,90.2,1004.1,314.1,1.6,2.5,333.5,0.00,16.9,21.0,"03:48:40",1
"23/06/16","04:00",0.0,18.4,90.6,1003.8,323.7,1.5,2.7,327.9,0.00,16.9,20.8,"03:59:04",1
"23/06/16","04:10",0.0,18.4,90.8,1004.3,297.6,1.5,2.4,337.7,0.00,16.9,21.0,"04:09:00",1
"23/06/16","04:20",0.0,18.2,91.1,1004.3,331.6,1.5,2.2,338.6,0.00,16.8,21.0,"04:15:12",1
"23/06/16","04:30",0.0,17.9,91.3,1004.5,316.9,1.3,1.9,335.3,0.00,16.5,20.6,"04:23:28",1
"23/06/16","04:40",0.0,17.5,91.6,1004.5,336.0,0.3,1.0,338.6,0.00,16.2,20.9,"04:39:44",1
"23/06/16","04:50",0.0,17.4,92.0,1004.5,323.0,1.0,1.7,315.4,0.00,16.1,20.7,"04:45:20",1
"23/06/16","05:00",0.0,17.5,92.3,1004.8,338.9,1.1,1.9,318.1,0.00,16.3,20.8,"04:59:12",1
"23/06/16","05:10",0.0,17.6,92.6,1004.8,330.2,1.6,2.7,356.6,0.00,16.4,20.7,"05:04:00",1
"23/06/16","05:20",0.0,17.6,92.9,1004.8,297.8,1.2,2.8,331.2,0.00,16.5,20.7,"05:15:44",1
"23/06/16","05:30",0.0,17.4,93.1,1004.8,284.2,1.0,1.3,269.6,0.00,16.3,20.8,"05:26:16",1
"23/06/16","05:40",0.0,17.5,93.4,1004.8,340.1,1.1,2.2,334.7,0.00,16.5,20.6,"05:31:44",1
"23/06/16","05:50",0.0,17.5,93.6,1005.2,288.0,1.1,1.7,322.8,0.00,16.5,20.7,"05:46:56",1
"23/06/16","06:00",0.0,17.6,93.9,1005.2,321.3,1.3,2.8,336.8,0.00,16.6,20.5,"05:59:04",1
"23/06/16","06:10",0.0,18.0,93.9,1006.0,326.9,1.6,3.1,336.5,0.00,17.0,20.6,"06:04:00",1
"23/06/16","06:20",0.0,18.3,93.7,1005.7,323.1,1.6,4.0,298.4,0.00,17.3,20.4,"06:11:52",1
"23/06/16","06:30",0.0,18.6,93.5,1005.7,324.2,1.2,3.3,335.3,0.01,17.6,20.5,"06:22:32",1
"23/06/16","06:40",0.0,18.6,92.7,1006.0,343.3,1.6,3.9,336.5,0.01,17.4,20.5,"06:38:16",1
"23/06/16","06:50",0.0,19.0,92.0,1006.4,317.6,1.7,3.3,343.3,0.03,17.7,20.5,"06:44:40",1
"23/06/16","07:00",0.0,19.4,90.8,1006.4,308.9,1.8,4.0,317.0,0.05,17.9,20.4,"06:58:48",1
"23/06/16","07:10",0.0,19.6,89.2,1006.4,314.0,1.7,2.8,325.0,0.05,17.8,20.4,"07:07:04",1
"23/06/16","07:20",0.0,20.3,87.7,1006.7,303.6,1.2,2.4,295.6,0.06,18.2,20.2,"07:10:56",1
"23/06/16","07:30",0.0,20.7,85.0,1006.9,333.0,1.3,3.1,347.6,0.09,18.1,20.3,"07:25:20",1
"23/06/16","07:40",0.0,20.9,81.6,1007.1,310.9,1.7,3.2,331.0,0.06,17.7,20.4,"07:38:24",1
"23/06/16","07:50",0.0,20.7,80.4,1006.9,302.6,1.5,2.9,345.8,0.04,17.2,20.4,"07:44:40",1
"23/06/16","08:00",0.0,21.2,80.5,1007.1,296.4,1.6,2.6,261.8,0.14,17.8,20.5,"07:54:56",1
"23/06/16","08:10",0.0,21.7,78.6,1007.1,319.4,2.0,4.0,334.8,0.24,17.9,20.4,"08:06:24",1
"23/06/16","08:20",0.0,22.0,77.0,1006.9,325.4,2.0,3.9,337.6,0.23,17.8,20.3,"08:18:08",1
"23/06/16","08:30",0.0,22.4,75.2,1006.7,300.4,1.6,3.5,335.8,0.26,17.8,20.4,"08:26:00",1
"23/06/16","08:40",0.0,23.0,73.9,1006.7,299.9,1.2,3.1,244.7,0.30,18.1,20.2,"08:39:28",1
"23/06/16","08:50",0.0,23.0,72.6,1006.4,312.5,1.5,2.8,334.3,0.23,17.9,20.2,"08:45:36",1
"23/06/16","09:00",0.0,23.6,71.4,1006.4,319.9,1.3,3.2,322.7,0.32,18.2,20.5,"08:59:44",1
"23/06/16","09:10",0.0,23.3,71.5,1006.2,286.5,1.5,3.3,237.9,0.18,17.9,20.3,"09:09:12",1
"23/06/16","09:20",0.0,22.9,72.5,1006.2,264.6,1.7,4.3,243.0,0.19,17.7,20.4,"09:14:00",1
"23/06/16","09:30",0.0,23.1,73.2,1006.0,273.3,1.6,5.1,216.2,0.18,18.1,20.5,"09:23:52",1
"23/06/16","09:40",0.0,23.7,72.8,1006.2,278.6,1.2,3.1,242.0,0.28,18.6,20.4,"09:39:36",1
"23/06/16","09:50",0.0,24.0,71.5,1006.0,254.1,1.5,3.6,218.2,0.30,18.6,20.4,"09:47:28",1
"23/06/16","10:00",0.0,24.1,70.7,1005.7,257.1,1.8,5.2,221.7,0.34,18.5,20.5,"09:57:28",1
"23/06/16","10:10",0.0,24.2,70.5,1006.0,271.5,2.1,4.1,329.6,0.29,18.5,20.7,"10:03:36",1
"23/06/16","10:20",0.0,24.4,70.1,1005.7,302.6,2.1,4.9,330.9,0.36,18.6,20.5,"10:14:40",1
"23/06/16","10:30",0.0,24.6,68.3,1005.5,317.1,2.3,7.4,351.2,0.39,18.4,20.6,"10:24:24",1
"23/06/16","10:40",0.0,25.3,67.3,1005.7,304.0,2.2,5.4,346.6,0.54,18.8,20.6,"10:33:20",1
"23/06/16","10:50",0.0,25.5,65.0,1005.2,326.3,2.3,4.4,352.7,0.51,18.5,20.7,"10:41:44",1
"23/06/16","11:00",0.0,26.0,64.8,1005.7,283.4,2.0,5.4,357.5,0.55,18.9,20.6,"10:53:36",1
"23/06/16","11:10",0.0,25.2,64.6,1005.5,296.5,2.1,6.5,337.1,0.29,18.1,20.7,"11:04:32",1
"23/06/16","11:20",0.0,25.6,66.5,1005.2,314.8,1.8,4.8,316.0,0.34,18.9,20.7,"11:12:40",1
"23/06/16","11:30",0.0,26.1,63.9,1005.5,359.8,2.2,5.6,337.0,0.48,18.8,20.5,"11:21:12",1
"23/06/16","11:40",0.0,25.2,63.8,1005.2,293.6,1.8,4.0,319.9,0.14,17.9,20.6,"11:39:44",1
"23/06/16","11:50",0.0,24.5,66.1,1006.0,311.7,2.5,5.2,310.4,0.11,17.8,20.8,"11:48:40",1
"23/06/16","12:00",0.0,25.3,67.0,1006.0,314.6,2.5,4.4,342.3,0.44,18.8,20.8,"11:50:56",1
"23/06/16","12:10",0.0,26.7,61.9,1005.5,317.2,1.5,5.4,248.5,0.59,18.8,20.9,"12:07:04",1
"23/06/16","12:20",0.0,27.2,59.8,1005.5,281.1,1.7,4.3,253.7,0.61,18.8,20.8,"12:18:40",1
"23/06/16","12:30",0.0,27.1,59.9,1005.5,284.2,1.3,3.3,354.8,0.36,18.7,20.9,"12:27:20",1
"23/06/16","12:40",0.0,27.2,58.1,1005.7,308.5,1.8,4.2,316.0,0.41,18.3,20.8,"12:30:02",1
"23/06/16","12:50",0.0,27.7,56.4,1005.5,336.1,2.3,5.8,334.6,0.58,18.3,21.0,"12:41:20",1
"23/06/16","13:00",0.0,27.9,55.3,1005.0,291.9,2.3,5.9,233.5,0.60,18.2,21.1,"12:52:24",1
"23/06/16","13:10",0.0,28.5,54.7,1005.5,294.0,2.0,5.0,231.0,0.60,18.5,21.1,"13:04:08",1
"23/06/16","13:20",0.0,28.4,52.5,1005.0,290.6,2.2,4.8,332.6,0.59,17.8,20.8,"13:19:12",1
"23/06/16","13:30",0.0,28.9,52.7,1005.0,325.2,2.1,5.6,323.7,0.60,18.3,21.1,"13:22:32",1
"23/06/16","13:40",0.0,29.1,52.2,1005.5,294.6,2.1,4.4,332.8,0.65,18.3,21.1,"13:30:02",1
"23/06/16","13:50",0.0,27.3,56.6,1005.2,10.7,2.7,7.7,328.5,0.23,18.0,21.2,"13:40:16",1
"23/06/16","14:00",0.0,28.1,57.7,1004.5,7.8,2.2,4.9,50.3,0.54,19.0,21.2,"13:50:24",1
"23/06/16","14:10",0.0,28.8,51.3,1004.8,8.0,1.7,3.6,30.4,0.56,17.8,21.2,"14:06:24",1
"23/06/16","14:20",0.0,28.9,51.4,1004.8,358.6,2.1,4.3,355.2,0.48,17.9,21.3,"14:19:20",1
"23/06/16","14:30",0.0,28.6,52.0,1004.8,349.8,2.5,8.0,321.7,0.42,17.8,21.4,"14:29:12",1
"23/06/16","14:40",0.0,28.6,54.0,1004.8,0.9,2.5,4.7,348.8,0.42,18.4,21.3,"14:31:20",1
"23/06/16","14:50",0.0,28.2,51.3,1004.3,345.8,2.1,4.1,338.8,0.31,17.2,21.4,"14:41:52",1
"23/06/16","15:00",0.0,27.7,54.7,1004.1,340.3,2.0,5.0,327.4,0.13,17.8,21.6,"14:57:44",1
"23/06/16","15:10",0.0,28.5,54.1,1004.1,349.7,2.5,4.7,353.7,0.44,18.4,21.6,"15:09:20",1
"23/06/16","15:20",0.0,29.1,51.0,1004.3,345.5,2.2,4.2,21.0,0.46,18.0,21.6,"15:12:16",1
"23/06/16","15:30",0.0,29.4,49.1,1004.3,358.5,2.0,4.7,351.6,0.45,17.6,21.5,"15:20:40",1
"23/06/16","15:40",0.0,29.6,49.4,1004.3,12.3,1.8,4.3,359.5,0.43,17.9,21.5,"15:30:24",1
"23/06/16","15:50",0.0,29.5,49.6,1004.5,352.3,2.2,4.9,338.8,0.41,17.9,21.7,"15:47:04",1
"23/06/16","16:00",0.0,29.3,50.0,1004.8,359.4,2.6,5.0,348.1,0.40,17.8,21.5,"15:55:28",1
"23/06/16","16:10",0.0,28.8,50.7,1004.5,351.6,2.3,4.4,347.4,0.31,17.6,21.7,"16:04:08",1
"23/06/16","16:20",0.0,28.9,50.3,1004.3,351.8,1.8,4.4,326.5,0.33,17.6,21.6,"16:18:24",1
"23/06/16","16:30",0.0,29.3,51.0,1004.5,353.5,2.0,4.4,346.4,0.37,18.2,21.7,"16:20:02",1
"23/06/16","16:40",0.0,27.9,52.4,1004.3,356.0,2.1,6.7,346.2,0.11,17.3,21.9,"16:39:20",1
"23/06/16","16:50",0.0,28.2,53.7,1004.3,347.4,2.7,5.5,353.0,0.28,18.0,21.9,"16:42:00",1
"23/06/16","17:00",0.0,28.5,53.4,1004.1,348.8,2.5,5.5,345.1,0.27,18.2,21.8,"16:52:56",1
"23/06/16","17:10",0.0,27.9,53.6,1004.3,350.9,2.2,4.7,347.8,0.13,17.7,21.8,"17:00:48",1
"23/06/16","17:20",0.0,27.2,55.7,1004.1,347.2,2.6,5.2,317.0,0.07,17.6,22.0,"17:18:40",1
"23/06/16","17:30",0.0,27.2,56.1,1004.1,352.6,2.5,6.3,336.4,0.11,17.7,21.9,"17:20:02",1
"23/06/16","17:40",0.0,27.8,54.9,1004.1,351.8,2.6,4.9,330.9,0.07,17.9,21.9,"17:38:24",1
"23/06/16","17:50",0.0,27.7,54.9,1004.1,346.3,2.5,4.8,0.4,0.03,17.9,21.9,"17:45:36",1
"23/06/16","18:00",0.0,27.5,55.5,1004.1,357.8,1.7,4.0,30.1,0.02,17.8,22.0,"17:59:28",1
"23/06/16","18:10",0.0,27.6,56.3,1004.3,359.0,2.0,3.6,346.7,0.02,18.2,22.1,"18:09:04",1
"23/06/16","18:20",0.0,27.4,58.1,1004.3,348.1,1.6,2.8,348.6,0.02,18.5,22.0,"18:17:36",1
"23/06/16","18:30",0.0,27.3,56.9,1004.8,4.5,2.0,4.0,22.1,0.02,18.1,21.9,"18:20:02",1
"23/06/16","18:40",0.0,27.1,58.1,1004.8,5.3,1.8,3.4,351.4,0.01,18.2,22.0,"18:32:40",1
"23/06/16","18:50",0.0,26.8,59.2,1005.0,2.7,1.7,3.3,325.5,0.01,18.2,22.0,"18:45:12",1
"23/06/16","19:00",0.0,26.4,60.4,1005.5,9.2,1.8,3.7,42.7,0.02,18.2,21.9,"18:51:36",1
"23/06/16","19:10",0.0,26.3,62.0,1005.5,353.6,1.3,2.9,348.9,0.02,18.5,22.2,"19:05:20",1
"23/06/16","19:20",0.0,25.8,63.1,1005.7,350.7,1.7,3.1,358.4,0.00,18.3,22.1,"19:12:16",1
"23/06/16","19:30",0.0,25.1,65.1,1006.0,350.3,1.5,2.9,355.2,0.00,18.1,22.2,"19:21:44",1
"23/06/16","19:40",0.0,24.5,67.1,1006.0,347.9,1.6,3.6,27.0,0.00,18.0,22.1,"19:30:08",1
"23/06/16","19:50",0.0,24.1,68.7,1006.2,343.9,1.7,2.8,335.6,0.00,18.0,22.0,"19:43:04",1
"23/06/16","20:00",0.0,23.7,70.1,1006.4,341.3,1.5,3.4,342.7,0.00,18.0,22.0,"19:57:28",1
"23/06/16","20:10",0.0,23.3,71.7,1006.7,344.4,1.8,3.4,344.5,0.00,17.9,22.0,"20:06:40",1
"23/06/16","20:20",0.0,23.0,73.1,1006.9,342.7,2.0,4.7,333.3,0.00,18.0,21.9,"20:19:36",1
"23/06/16","20:30",0.0,22.9,73.9,1007.1,339.4,2.1,4.2,331.8,0.00,18.0,21.8,"20:23:20",1
"23/06/16","20:40",0.0,22.5,74.8,1007.1,326.0,1.5,2.5,338.0,0.00,17.8,21.7,"20:31:04",1
"23/06/16","20:50",0.0,22.1,76.0,1007.1,291.5,0.7,3.2,345.2,0.00,17.7,22.0,"20:41:36",1
"23/06/16","21:00",0.0,21.5,76.6,1007.1,294.1,0.6,0.9,262.2,0.00,17.3,21.8,"20:59:36",1
"23/06/16","21:10",0.0,21.4,78.2,1007.6,292.8,1.0,2.0,302.4,0.00,17.5,21.9,"21:09:12",1
"23/06/16","21:20",0.0,21.2,79.0,1007.8,287.6,0.6,1.2,312.6,0.00,17.5,21.7,"21:11:12",1
"23/06/16","21:30",0.0,21.0,79.5,1008.1,310.6,0.6,1.1,345.3,0.00,17.4,21.8,"21:24:32",1
"23/06/16","21:40",0.0,21.0,80.3,1007.8,279.3,0.5,1.3,319.9,0.00,17.5,21.7,"21:38:48",1
"23/06/16","21:50",0.0,20.7,81.2,1008.1,315.3,1.1,1.8,330.8,0.00,17.4,21.9,"21:49:52",1
"23/06/16","22:00",0.0,20.6,82.4,1008.3,331.5,1.7,2.7,334.9,0.00,17.5,21.7,"21:57:28",1
"23/06/16","22:10",0.0,20.3,83.1,1008.6,305.7,1.0,2.0,307.0,0.00,17.4,21.5,"22:02:56",1
"23/06/16","22:20",0.0,20.1,83.9,1008.8,109.1,0.2,0.5,114.8,0.00,17.3,21.7,"22:14:48",1
"23/06/16","22:30",0.0,19.9,84.5,1008.8,268.4,0.5,1.1,293.3,0.00,17.3,21.7,"22:20:02",1
"23/06/16","22:40",0.0,19.9,84.9,1009.0,315.3,1.2,1.7,314.7,0.00,17.3,21.6,"22:32:32",1
"23/06/16","22:50",0.0,19.9,85.2,1008.8,340.6,1.1,1.8,341.7,0.00,17.4,21.5,"22:42:00",1
"23/06/16","23:00",0.0,19.8,85.6,1008.8,318.1,1.3,2.4,337.1,0.00,17.4,21.4,"22:53:20",1
"23/06/16","23:10",0.0,19.6,85.9,1009.3,298.3,1.3,2.6,331.3,0.00,17.2,21.3,"23:07:12",1
"23/06/16","23:20",0.0,19.6,86.3,1008.8,315.9,1.8,2.9,316.6,0.00,17.3,21.3,"23:15:52",1
"23/06/16","23:30",0.0,19.8,86.2,1008.8,325.0,3.1,5.5,341.7,0.00,17.5,21.3,"23:26:24",1
"23/06/16","23:40",0.0,19.7,86.2,1009.0,332.8,3.1,4.8,332.7,0.00,17.4,21.3,"23:33:04",1
"23/06/16","23:50",0.0,19.5,86.3,1009.0,335.5,2.3,3.6,341.8,0.00,17.2,21.3,"23:43:04",1
"23/06/16","24:00",0.0,19.4,86.4,1009.3,333.9,1.8,3.3,346.5,0.00,17.1,21.2,"23:54:56",1
